TimeCST,TemperatureF,Dew PointF,Humidity,Sea Level PressureIn,VisibilityMPH,Wind Direction,Wind SpeedMPH,Gust SpeedMPH,PrecipitationIn,Events,Conditions,WindDirDegrees,DateUTC
12:15 AM,2.7,-6.2,67,30.52,10.0,WSW,9.2,-,N/A,,Mostly Cloudy,250,2013-12-12 06:15:00
12:35 AM,2.1,-6.3,68,30.52,10.0,West,8.1,-,N/A,,Scattered Clouds,270,2013-12-12 06:35:00
12:55 AM,2.1,-6.0,69,30.51,10.0,West,6.9,-,N/A,,Clear,270,2013-12-12 06:55:00
1:15 AM,1.2,-6.5,70,30.50,10.0,West,4.6,-,N/A,,Clear,280,2013-12-12 07:15:00
1:35 AM,0.5,-6.7,72,30.50,10.0,West,3.5,-,N/A,,Scattered Clouds,270,2013-12-12 07:35:00
1:55 AM,0.5,-6.7,72,30.51,10.0,West,3.5,-,N/A,,Scattered Clouds,260,2013-12-12 07:55:00
2:15 AM,-1.3,-8.7,71,30.50,10.0,Calm,Calm,-,N/A,,Mostly Cloudy,0,2013-12-12 08:15:00
2:35 AM,-4.7,-10.8,75,30.49,10.0,Calm,Calm,-,N/A,,Scattered Clouds,0,2013-12-12 08:35:00
2:55 AM,-6.3,-11.2,79,30.50,10.0,Calm,Calm,-,N/A,,Clear,0,2013-12-12 08:55:00
3:15 AM,-6.7,-10.5,84,30.50,10.0,SW,8.1,-,N/A,,Clear,220,2013-12-12 09:15:00
3:35 AM,-2.9,-8.7,76,30.50,10.0,SW,6.9,-,N/A,,Clear,230,2013-12-12 09:35:00
3:55 AM,-2.4,-9.0,73,30.49,10.0,SW,6.9,-,N/A,,Mostly Cloudy,220,2013-12-12 09:55:00
4:15 AM,-3.3,-9.4,75,30.48,10.0,SW,8.1,-,N/A,,Overcast,220,2013-12-12 10:15:00
4:35 AM,-4.9,-10.8,76,30.48,10.0,SW,5.8,-,N/A,,Scattered Clouds,220,2013-12-12 10:35:00
4:55 AM,-6.0,-11.6,77,30.48,10.0,SW,6.9,-,N/A,,Clear,220,2013-12-12 10:55:00
5:15 AM,-6.3,-12.1,76,30.47,10.0,SW,5.8,-,N/A,,Mostly Cloudy,230,2013-12-12 11:15:00
5:35 AM,-6.5,-12.1,77,30.47,10.0,SW,8.1,-,N/A,,Mostly Cloudy,230,2013-12-12 11:35:00
5:55 AM,-6.3,-12.1,76,30.47,10.0,WSW,8.1,-,N/A,,Scattered Clouds,240,2013-12-12 11:55:00
6:15 AM,-6.0,-11.6,77,30.46,10.0,SW,8.1,-,N/A,,Clear,220,2013-12-12 12:15:00
6:35 AM,-6.0,-11.4,77,30.47,10.0,SW,5.8,-,N/A,,Clear,230,2013-12-12 12:35:00
6:55 AM,-6.5,-11.9,77,30.47,10.0,SW,5.8,-,N/A,,Clear,220,2013-12-12 12:55:00
7:15 AM,-5.1,-10.3,78,30.46,10.0,SW,6.9,-,N/A,,Scattered Clouds,220,2013-12-12 13:15:00
7:35 AM,-4.4,-9.6,78,30.44,10.0,SSW,11.5,-,N/A,,Overcast,210,2013-12-12 13:35:00
7:55 AM,-2.9,-8.5,77,30.44,10.0,SW,10.4,-,N/A,,Overcast,220,2013-12-12 13:55:00
8:15 AM,-1.3,-7.6,75,30.43,10.0,SSW,10.4,-,N/A,,Overcast,210,2013-12-12 14:15:00
8:35 AM,-0.4,-7.6,72,30.43,10.0,SSW,13.8,-,N/A,,Overcast,210,2013-12-12 14:35:00
8:55 AM,0.3,-6.9,72,30.42,10.0,SSW,10.4,-,N/A,,Overcast,210,2013-12-12 14:55:00
12:15 PM,12.9,-0.0,56,30.34,10.0,SW,13.8,23.0,N/A,,Clear,230,2013-12-12 18:15:00
1:35 PM,17.6,4.5,56,30.30,10.0,SW,10.4,-,N/A,,Clear,230,2013-12-12 19:35:00
1:55 PM,18.9,5.4,56,30.30,10.0,WSW,11.5,20.7,N/A,,Clear,240,2013-12-12 19:55:00
2:15 PM,19.2,5.7,56,30.29,10.0,WSW,11.5,-,N/A,,Clear,250,2013-12-12 20:15:00
2:35 PM,19.4,6.3,57,30.30,10.0,WSW,12.7,16.1,N/A,,Clear,250,2013-12-12 20:35:00
2:55 PM,19.4,6.8,58,30.29,10.0,WSW,11.5,-,N/A,,Clear,250,2013-12-12 20:55:00
3:15 PM,19.4,7.0,59,30.28,10.0,WSW,15.0,18.4,N/A,,Clear,250,2013-12-12 21:15:00
3:35 PM,19.4,7.5,60,30.28,10.0,WSW,12.7,17.3,N/A,,Clear,250,2013-12-12 21:35:00
3:55 PM,19.0,7.7,61,30.28,10.0,WSW,13.8,19.6,N/A,,Clear,250,2013-12-12 21:55:00
4:15 PM,18.1,7.7,64,30.28,10.0,WSW,8.1,-,N/A,,Clear,250,2013-12-12 22:15:00
4:35 PM,17.6,7.7,65,30.28,10.0,WSW,6.9,-,N/A,,Clear,250,2013-12-12 22:35:00
4:55 PM,16.7,7.7,68,30.28,10.0,West,6.9,-,N/A,,Clear,260,2013-12-12 22:55:00
5:15 PM,16.3,7.7,69,30.26,10.0,WSW,8.1,-,N/A,,Clear,240,2013-12-12 23:15:00
5:35 PM,16.5,7.9,69,30.27,10.0,WSW,5.8,-,N/A,,Clear,250,2013-12-12 23:35:00
5:55 PM,15.8,7.7,70,30.27,10.0,WSW,3.5,-,N/A,,Clear,250,2013-12-12 23:55:00
6:15 PM,14.7,7.3,73,30.27,10.0,WSW,5.8,-,N/A,,Clear,240,2013-12-13 00:15:00
6:35 PM,15.6,8.1,72,30.27,10.0,WSW,5.8,-,N/A,,Clear,240,2013-12-13 00:35:00
6:55 PM,14.9,7.7,73,30.26,10.0,SW,5.8,-,N/A,,Clear,230,2013-12-13 00:55:00
7:15 PM,14.5,7.7,74,30.26,10.0,SW,6.9,-,N/A,,Clear,230,2013-12-13 01:15:00
7:35 PM,12.9,7.0,77,30.26,10.0,SW,6.9,-,N/A,,Scattered Clouds,230,2013-12-13 01:35:00
7:55 PM,12.0,6.4,78,30.26,10.0,SW,8.1,-,N/A,,Mostly Cloudy,230,2013-12-13 01:55:00
8:15 PM,14.0,7.9,77,30.26,10.0,SW,6.9,-,N/A,,Overcast,230,2013-12-13 02:15:00
8:35 PM,13.3,7.5,78,30.25,10.0,SW,6.9,-,N/A,,Overcast,220,2013-12-13 02:35:00
8:55 PM,13.1,7.5,78,30.25,10.0,SSW,4.6,-,N/A,,Overcast,200,2013-12-13 02:55:00
9:15 PM,14.0,8.6,79,30.25,10.0,SSW,4.6,-,N/A,,Overcast,210,2013-12-13 03:15:00
9:35 PM,12.7,7.5,80,30.25,10.0,SW,3.5,-,N/A,,Mostly Cloudy,220,2013-12-13 03:35:00
9:55 PM,12.2,7.7,82,30.25,10.0,SW,4.6,-,N/A,,Scattered Clouds,230,2013-12-13 03:55:00
10:15 PM,14.0,9.3,82,30.24,10.0,SW,5.8,-,N/A,,Clear,230,2013-12-13 04:15:00
10:35 PM,13.1,8.6,82,30.24,10.0,WSW,4.6,-,N/A,,Clear,240,2013-12-13 04:35:00
10:55 PM,13.1,8.6,82,30.22,10.0,SW,4.6,-,N/A,,Scattered Clouds,230,2013-12-13 04:55:00
11:15 PM,11.8,7.5,83,30.22,10.0,SW,6.9,-,N/A,,Mostly Cloudy,220,2013-12-13 05:15:00
11:35 PM,12.7,8.6,84,30.22,10.0,SW,6.9,-,N/A,,Mostly Cloudy,230,2013-12-13 05:35:00
11:55 PM,12.6,8.4,83,30.22,10.0,SW,3.5,-,N/A,,Overcast,230,2013-12-13 05:55:00